This demonstration page uses our WeatherBlox Daily Observations layout. Learn more.

Left ArrowRight Arrow

39.51506, -84.39828

Hourly Observations for May 21, 2022

Temp ( °F °C ) Dew Point ( °F °C ) Humidity (%) Winds ( mph kmh ) Pressure ( in mb ) Visibility ( mi km ) Precip ( " mm )
12:15 am 00:15 Clear 77 24.8 64 17.8 65 65 S 9 15 29.82 1010 10 16 0.00 0.00
12:35 am 00:35 Clear 75 23.8 64 18 70 70 S 7 11 29.85 1011 10 16 0.00 0.00
12:55 am 00:55 Clear 75 23.7 64 18 71 71 S 8 13 29.84 1010 10 16 0.00 0.00
1:15 am 01:15 Clear 74 23.6 64 18 71 71 S 8 13 29.84 1010 10 16 0.00 0.00
1:35 am 01:35 Clear 74 23.6 64 18 71 71 S 9 15 29.85 1011 10 16 0.00 0.00
1:55 am 01:55 Clear 75 23.7 64 17.9 70 70 S 12 19 29.85 1011 10 16 0.00 0.00
2:15 am 02:15 Clear 75 23.7 64 17.9 70 70 S 10 17 29.85 1011 10 16 0.00 0.00
2:35 am 02:35 Clear 74 23.4 64 17.9 71 71 S 12 19 29.86 1011 10 16 0.00 0.00
2:55 am 02:55 Clear 74 23.3 64 17.9 72 72 S 9 15 29.87 1011 10 16 0.00 0.00
3:15 am 03:15 Clear 73 22.9 64 17.9 74 74 S 9 15 29.87 1011 10 16 0.00 0.00
3:35 am 03:35 Clear 73 22.9 64 17.8 73 73 S 9 15 29.88 1012 10 16 0.00 0.00
3:55 am 03:55 Partly Cloudy 74 23.1 64 17.9 73 73 S 8 13 29.88 1012 10 16 0.00 0.00
4:15 am 04:15 Partly Cloudy 73 22.5 64 17.9 75 75 S 8 13 29.89 1012 10 16 0.00 0.00
4:35 am 04:35 Mostly Cloudy 72 22.4 64 17.9 76 76 S 9 15 29.89 1012 10 16 0.00 0.00
4:55 am 04:55 Partly Cloudy 73 22.5 64 18 76 76 S 7 11 29.89 1012 10 16 0.00 0.00
5:15 am 05:15 Partly Cloudy 72 22.4 64 18 76 76 S 10 17 29.89 1012 10 16 0.00 0.00
5:35 am 05:35 Clear 71 21.8 65 18.1 80 80 S 12 19 29.90 1013 10 16 0.00 0.00
5:55 am 05:55 Partly Cloudy 71 21.9 65 18.1 79 79 S 9 15 29.90 1013 10 16 0.00 0.00
6:15 am 06:15 Mostly Cloudy 72 22 65 18.3 80 80 S 9 15 29.91 1013 10 16 0.00 0.00
6:35 am 06:35 Partly Cloudy 71 21.9 65 18.3 80 80 S 8 13 29.92 1013 10 16 0.00 0.00
6:55 am 06:55 Mostly Cloudy 71 21.9 65 18.5 81 81 S 9 15 29.93 1014 10 16 0.00 0.00
7:15 am 07:15 Cloudy 72 22.2 65 18.6 80 80 S 9 15 29.93 1014 10 16 0.00 0.00
7:35 am 07:35 Partly Cloudy 73 22.5 66 18.7 79 79 S 9 15 29.94 1014 10 16 0.00 0.00
7:55 am 07:55 Partly Cloudy 73 23 66 18.9 78 78 S 9 15 29.94 1014 10 16 0.00 0.00
8:15 am 08:15 Partly Cloudy 74 23.4 66 18.7 75 75 S 9 15 29.95 1014 10 16 0.00 0.00
8:35 am 08:35 Partly Cloudy 75 23.8 66 19.1 75 75 SSW 9 15 29.96 1014 10 16 0.00 0.00
8:55 am 08:55 Partly Cloudy 76 24.7 67 19.4 72 72 S 12 19 29.95 1014 10 16 0.00 0.00
9:15 am 09:15 Partly Cloudy 78 25.3 67 19.3 69 69 SSW 17 28 29.96 1015 10 16 0.00 0.00
9:35 am 09:35 Partly Cloudy 78 25.8 67 19.7 69 69 SSW 16 26 29.95 1014 10 16 0.00 0.00
9:55 am 09:55 Partly Cloudy 78 25.5 67 19.3 69 69 SW 15 24 29.96 1015 10 16 0.00 0.00
10:15 am 10:15 Cloudy 78 25.7 67 19.7 70 70 SW 16 26 29.97 1015 10 16 0.00 0.00
10:35 am 10:35 Mostly Cloudy 79 26.3 68 19.8 68 68 SW 16 26 29.97 1015 10 16 0.00 0.00
10:55 am 10:55 Mostly Cloudy 80 26.4 69 20.4 70 70 SSW 14 22 29.96 1015 10 16 0.00 0.00
11:15 am 11:15 Sunny 82 27.6 70 20.9 67 67 SSW 14 22 29.96 1014 10 16 0.00 0.00
11:35 am 11:35 Partly Cloudy 81 27.4 69 20.7 67 67 SW 9 15 29.97 1015 10 16 0.00 0.00
11:55 am 11:55 Mostly Cloudy 82 27.7 70 20.9 67 67 SSW 14 22 29.96 1014 10 16 0.00 0.00
12:15 pm 12:15 Mostly Cloudy 83 28.2 70 21.2 66 66 S 10 17 29.95 1014 10 16 0.00 0.00
12:35 pm 12:35 Mostly Cloudy 81 27.1 70 20.9 69 69 SW 12 19 29.96 1015 10 16 0.00 0.00
12:55 pm 12:55 Cloudy 81 27.4 70 21.1 69 69 SW 10 17 29.97 1015 10 16 0.00 0.00
1:15 pm 13:15 Cloudy 82 27.9 71 21.4 68 68 W 12 19 29.97 1015 10 16 0.00 0.00
1:35 pm 13:35 Cloudy 81 27.4 70 21.2 69 69 WSW 10 17 29.98 1015 10 16 0.00 0.00
1:55 pm 13:55 Mostly Cloudy with Light Rain 81 27.3 74 23.5 80 80 W 8 13 29.97 1015 10 16 0.04 1.02
2:15 pm 14:15 Mostly Cloudy 83 28.5 74 23.1 73 73 WSW 9 15 29.96 1014 10 16 0.00 0.00
2:35 pm 14:35 Mostly Cloudy with Nearby Thunderstorms 82 27.9 72 22.2 71 71 WSW 7 11 29.96 1014 10 16 0.00 0.00
2:55 pm 14:55 Cloudy 81 27.3 72 22.1 73 73 S 7 11 29.95 1014 10 16 0.00 0.00
3:15 pm 15:15 Cloudy 80 26.8 72 22.4 77 77 SSW 10 17 29.96 1015 10 16 0.00 0.00
3:35 pm 15:35 Cloudy with Thunderstorms 76 24.4 73 22.9 91 91 S 16 26 29.96 1015 4 6 0.01 0.25
3:55 pm 15:55 Cloudy with Nearby Thunderstorms 75 23.8 71 21.7 88 88 SSE 13 20 29.97 1015 7 11 0.01 0.25
4:15 pm 16:15 Mostly Cloudy with Nearby Thunderstorms 72 22.2 68 20.1 88 88 SSE 13 20 29.95 1014 10 16 0.00 0.00
4:35 pm 16:35 Partly Cloudy 72 22.3 67 19.2 83 83 S 7 11 29.95 1014 10 16 0.00 0.00
4:55 pm 16:55 Partly Cloudy with Nearby Thunderstorms 72 22 65 18.4 80 80 S 9 15 29.97 1015 10 16 0.00 0.00
5:15 pm 17:15 Cloudy with Thunderstorms 69 20.8 68 20.1 96 96 S 7 11 29.98 1015 5 8 0.07 1.78
5:35 pm 17:35 Cloudy with Strong Thunderstorms 69 20.6 68 20 96 96 WSW 14 22 30.05 1018 1 2 0.15 3.81
5:55 pm 17:55 Cloudy 68 20.1 68 19.9 99 99 W 7 11 30.03 1017 7 11 0.24 6.10
6:15 pm 18:15 Mostly Cloudy 68 20 67 19.5 97 97 NE 8 13 30.00 1016 10 16 0.00 0.00
6:35 pm 18:35 Mostly Cloudy with Light Rain 68 20 68 20 100 100 ESE 6 9 29.99 1016 10 16 0.00 0.00
6:55 pm 18:55 Mostly Cloudy with Light Rain 68 20 N/A N/A E 9 15 29.95 1014 10 16 0.01 0.25
7:15 pm 19:15 Mostly Cloudy with Light Rain 68 20 N/A N/A Calm 29.96 1015 10 16 0.00 0.00
7:35 pm 19:35 Sunny 68 20 68 20 100 100 S 7 11 29.95 1014 10 16 0.00 0.00
7:55 pm 19:55 Sunny 68 20.1 68 20 99 99 SE 10 17 29.95 1014 10 16 0.00 0.00
8:15 pm 20:15 Sunny 68 20.1 68 20 99 99 SSW 8 13 29.99 1016 10 16 0.00 0.00
8:35 pm 20:35 Sunny 68 20 68 20 100 100 WSW 5 7 30.00 1016 10 16 0.00 0.00
8:55 pm 20:55 Clear 66 19 N/A N/A SW 6 9 30.02 1016 10 16 0.00 0.00
9:15 pm 21:15 Clear 66 19 N/A N/A SSW 3 6 30.03 1017 10 16 0.00 0.00
9:35 pm 21:35 Clear 66 19 N/A N/A S 6 9 30.03 1017 10 16 0.00 0.00
9:55 pm 21:55 Clear 66 19 N/A N/A S 5 7 30.04 1017 10 16 0.00 0.00
10:15 pm 22:15 Clear 66 19 N/A N/A Calm 30.04 1017 10 16 0.00 0.00
10:35 pm 22:35 Hazy 64 18 N/A N/A Calm 30.06 1018 5 8 0.00 0.00
10:55 pm 22:55 Partly Cloudy with Mist and Fog 63 17 N/A N/A W 6 9 30.08 1019 3 5 0.00 0.00
11:15 pm 23:15 Cloudy with Haze 64 18 N/A N/A Calm 30.07 1018 7 11 0.00 0.00
11:35 pm 23:35 Cloudy with Haze 64 18 N/A N/A Calm 30.06 1018 5 8 0.00 0.00
11:55 pm 23:55 Mostly Cloudy with Nearby Thunderstorms 64 18 N/A N/A SSW 5 7 30.08 1019 4 6 0.00 0.00

Powered by AerisWeather